Regional Weather Roundup
Issued by NWS

Home | Current Version | Previous Version | Graphics & Text | Print | Product List | Glossary On
Versions: 1 2 3 4 5 6 7 8 9 10 11 12 13 14 15 16 17 18 19 20 21 22 23 24 25 26 27 28 29 30 31 32 33 34 35 36 37 38 39 40 41 42 43 44 45 46 47 48 49 50
000
ASUS43 KOAX 061510
RWRNE

WEATHER ROUNDUP FOR NEBRASKA
NATIONAL WEATHER SERVICE OMAHA NE
1000 AM CDT WED MAY 06 2015

NOTES: SATELLITE DATA IS BEING USED TO AUGMENT CLOUD COVER ABOVE
       12000 FEET.
       "FAIR" INDICATES FEW OR NO CLOUDS BELOW 12,000 FEET WITH NO
       SIGNIFICANT WEATHER AND/OR OBSTRUCTIONS TO VISIBILITY.

  * THESE STATIONS DO NOT REPORT WEATHER SUCH AS RAIN...SNOW OR FOG.

NEZ001>004-019>022-054>056-061600-
NEBRASKA PANHANDLE

CITY           SKY/WX    TMP DP  RH WIND       PRES   REMARKS
SCOTTSBLUFF    CLOUDY    55  53  93 E12       29.68S
ALLIANCE       CLOUDY    53  51  93 SE10      29.68S
CHADRON        CLOUDY    57  52  83 SE10      29.68S
KIMBALL        CLOUDY    51  51  99 NE5       29.67R FOG
SIDNEY         CLOUDY    52  52 100 SE10      29.66S FOG
$$

NEZ057>060-069>072-079>082-061600-
SOUTHWEST NEBRASKA

CITY           SKY/WX    TMP DP  RH WIND       PRES   REMARKS
NORTH PLATTE   CLOUDY    60  56  86 S12       29.69F
IMPERIAL       CLOUDY    56  51  84 S13       29.68F
LEXINGTON      CLOUDY    62  59  92 SE13      29.71S
MCCOOK         CLOUDY    61  56  83 SE14      29.69F
OGALLALA       CLOUDY    58  54  86 S9        29.68F
$$

NEZ005>010-023>029-035>040-094-061600-
NORTH CENTRAL NEBRASKA

CITY           SKY/WX    TMP DP  RH WIND       PRES   REMARKS
VALENTINE      HVY RAIN  59  58  96 SE10      29.72S FOG
AINSWORTH      CLOUDY    62  58  88 SE15G21   29.72F
BROKEN BOW     LGT RAIN  61  58  90 SE13G24   29.71F
O`NEILL        RAIN      61  60  96 SE8       29.75F
ORD            LGT RAIN  61  57  87 SE9       29.72F
THEDFORD       CLOUDY    60  58  95 SE10      29.71F
$$

NEZ041-046>049-061>064-073>077-083>087-061600-
SOUTH CENTRAL NEBRASKA

CITY           SKY/WX    TMP DP  RH WIND       PRES   REMARKS
GRAND ISLAND   LGT RAIN  61  59  93 S14       29.76S FOG
AURORA         DRIZZLE   61  61  99 S16       29.77S
HASTINGS       LGT RAIN  60  58  92 S13       29.76R
HEBRON         CLOUDY    65  57  77 S17G29    29.80S
HOLDREGE       LGT RAIN  60  59  94 SE16      29.72F
KEARNEY *      CLOUDY    61  57  88 S15       29.74F
YORK           CLOUDY    63  59  88 S16G22    29.79S
$$

NEZ011>018-030>034-042>045-061600-
NORTHEAST NEBRASKA

CITY           SKY/WX    TMP DP  RH WIND       PRES   REMARKS
NORFOLK        LGT RAIN  62  60  93 SE17G26   29.76F FOG
ALBION         DRIZZLE   60  58  94 S12       29.76F
BLAIR          CLOUDY    64  58  80 SE18G26   29.84R
COLUMBUS *     CLOUDY    61  55  82 S13G25    29.80R
FREMONT        CLOUDY    65  60  86 SE15G24   29.83R
TEKAMAH        CLOUDY    67  60  78 SE23G35   29.83F
WAYNE          CLOUDY    63  60  90 SE20G29   29.80F
$$

NEZ050>053-065>068-078-088>093-061600-
SOUTHEAST NEBRASKA

CITY           SKY/WX    TMP DP  RH WIND       PRES   REMARKS
LINCOLN        LGT RAIN  65  60  84 S18       29.82S
OMAHA EPPLEY   CLOUDY    66  59  78 S22G30    29.84S
BEATRICE       CLOUDY    66  60  82 S16G23    29.83R
FALLS CITY     PTSUNNY   67  59  75 S20G28    29.88R
NEBRASKA CITY  CLOUDY    65  60  84 S17G23    29.87R
PLATTSMOUTH    CLOUDY    64  59  81 S15G23    29.86R
$$

NEZ044-045-051>053-067-061600-
OMAHA AREA

CITY           SKY/WX    TMP DP  RH WIND       PRES   REMARKS
OMAHA EPPLEY   CLOUDY    66  59  78 S22G30    29.84S
BLAIR          CLOUDY    64  58  80 SE18G26   29.84R
FREMONT        CLOUDY    65  60  86 SE15G24   29.83R
MILLARD        CLOUDY    65  60  82 SE22G28   29.84R
OFFUTT AFB     PTSUNNY   66  60  80 SE17      29.84R
PLATTSMOUTH    CLOUDY    64  59  81 S15G23    29.86R
$$



USA.gov is the U.S. government's official web portal to all federal, state and local government web resources and services.